Location: Banios
(43.0451°N, 0.2335°E)
Time: 12:29:29
(UTC+00:00)

Altair - Visible Passes

Search period start: 13 May 2021 00:00
Search period end: 23 May 2021 00:00
Orbit: 1501 x 1683 km, 47.2° (Epoch: 12 May)

Date Brightness Start Highest point End Pass type
(mag) Time Alt. Az. Time Alt. Az. Time Alt. Az.
13 May 7.8 01:32:10 10° W 01:42:23 73° N 01:52:22 10° ENE visible
13 May 7.8 03:37:51 10° WNW 03:48:02 78° NNE 03:57:50 10° ESE visible
13 May 8.4 21:01:02 10° S 21:08:29 24° SE 21:15:58 10° E visible
13 May 7.5 23:03:40 16° SW 23:12:02 68° SSE 23:22:02 10° ENE visible
14 May 7.8 01:06:53 10° W 01:17:06 74° N 01:27:08 10° ENE visible
14 May 7.8 03:12:35 10° WNW 03:22:47 77° NNE 03:32:37 10° E visible
14 May 8.5 20:36:25 10° S 20:43:25 22° SE 20:50:27 10° E visible
14 May 7.5 22:36:53 10° SW 22:46:51 64° SE 22:56:48 10° ENE visible
15 May 7.7 00:41:36 10° W 00:51:49 75° NNW 01:01:53 10° ENE visible
15 May 7.8 02:47:19 10° WNW 02:57:31 75° NNE 03:07:23 10° E visible
15 May 8.6 20:11:52 10° SSE 20:18:22 19° SE 20:24:53 10° E visible
15 May 7.6 22:11:48 10° SW 22:21:40 60° SE 22:31:34 10° ENE visible
16 May 7.7 00:16:20 10° W 00:26:33 77° NNW 00:36:39 10° ENE visible
16 May 7.8 02:22:02 10° WNW 02:32:14 74° N 02:42:09 10° E visible
16 May 8.7 19:47:26 10° SSE 19:53:19 17° ESE 19:59:14 10° E visible
16 May 7.6 21:46:45 10° SW 21:56:30 57° SE 22:06:20 10° ENE visible
16 May 7.7 23:51:03 10° WSW 00:01:17 79° NNW 00:11:25 10° ENE visible
17 May 7.8 01:56:46 10° WNW 02:06:58 72° N 02:16:54 10° E visible
17 May 7.6 04:02:03 10° WNW 04:12:04 71° SSW 04:21:44 10° SE visible
17 May 7.7 21:21:42 10° SSW 21:31:21 53° SE 21:41:04 10° ENE visible
17 May 7.7 23:25:47 10° WSW 23:36:01 81° NNW 23:46:11 10° ENE visible
18 May 7.8 01:31:29 10° WNW 01:41:41 71° N 01:51:39 10° E visible
18 May 7.6 03:36:47 10° WNW 03:46:53 75° SSW 03:56:37 10° SE visible
18 May 7.7 20:56:42 10° SSW 21:06:12 49° SE 21:15:48 10° ENE visible
18 May 7.6 23:00:32 10° WSW 23:10:45 83° NNW 23:20:57 10° ENE visible
19 May 7.9 01:06:12 10° W 01:16:24 71° N 01:26:23 10° E visible
19 May 7.6 03:11:33 10° WNW 03:21:41 79° SSW 03:31:29 10° SE visible
19 May 7.8 20:31:42 10° SSW 20:41:03 46° SE 20:50:32 10° ENE visible
19 May 7.6 22:35:18 10° WSW 22:45:30 86° NNW 22:55:43 10° ENE visible
20 May 7.9 00:40:55 10° W 00:51:07 70° N 01:01:09 10° E visible
20 May 7.6 02:46:18 10° WNW 02:56:29 82° SSW 03:06:20 10° ESE visible
20 May 7.9 20:06:45 10° SSW 20:15:56 43° SE 20:25:14 10° ENE visible
20 May 7.6 22:10:04 10° WSW 22:20:15 89° NNW 22:30:29 10° ENE visible
21 May 7.9 00:15:37 10° W 00:25:49 70° N 00:35:53 10° E visible
21 May 7.6 02:21:03 10° WNW 02:31:16 86° SSW 02:41:11 10° ESE visible
21 May 8.0 19:41:50 10° SSW 19:50:48 40° SE 19:59:56 10° ENE visible
21 May 7.6 21:44:51 10° WSW 21:55:01 88° SSE 22:05:15 10° ENE visible
21 May 7.9 23:50:20 10° W 00:00:32 70° N 00:10:37 10° E visible
22 May 7.6 01:55:48 10° WNW 02:06:03 89° SSW 02:16:00 10° ESE visible
22 May 7.6 21:19:40 10° WSW 21:29:47 85° SSE 21:40:01 10° ENE visible
22 May 7.9 23:25:03 10° W 23:35:14 70° N 23:45:21 10° E visible
